WetterOnline ( https://www.wetteronline.de )

Wetter aktuell Warburg

Aktuelles Wetter: Warburg (237m)

6-stündlich | Neueste Meldungen
Ortszeit Temperatur Wetter
Mo, 26.02. 1:00 0.5° C wolkig
So, 25.02. 19:00 4.3° C wolkig
So, 25.02. 13:00 6.8° C bedeckt
So, 25.02. 7:00 3.9° C Sprühregen
So, 25.02. 1:00 1.7° C bedeckt
Sa, 24.02. 19:00 4.1° C wolkenlos
Sa, 24.02. 13:00 6.6° C bewölkt
Sa, 24.02. 7:00 3.1° C bedeckt
Ortszeit Temperatur Wetter
Mo, 26.02. 2:00 1.0° C bewölkt
Mo, 26.02. 1:50 1.0° C bewölkt
Mo, 26.02. 1:40 1.0° C bedeckt
Mo, 26.02. 1:30 0.4° C wolkig
Mo, 26.02. 1:20 0.4° C wolkig
Mo, 26.02. 1:10 0.4° C bedeckt
Mo, 26.02. 1:00 0.5° C wolkig
Mo, 26.02. 0:30 0.7° C wolkig
Mo, 26.02. 0:00 0.6° C wolkig
So, 25.02. 23:30 0.5° C wolkig
So, 25.02. 23:00 1.4° C wolkig
Ortszeit Relative Feuchte Sichtweite
Mo, 26.02. 1:00 91% 45 km
So, 25.02. 19:00 81% 65 km
So, 25.02. 13:00 72% 50 km
So, 25.02. 7:00 77% 50 km
So, 25.02. 1:00 87% 60 km
Sa, 24.02. 19:00 69% 65 km
Sa, 24.02. 13:00 77% >70 km
Sa, 24.02. 7:00 85% 50 km
Ortszeit Relative Feuchte Sichtweite
Mo, 26.02. 2:00 90% 50 km
Mo, 26.02. 1:50 90% -
Mo, 26.02. 1:40 90% -
Mo, 26.02. 1:30 92% 50 km
Mo, 26.02. 1:20 92% -
Mo, 26.02. 1:10 91% -
Mo, 26.02. 1:00 91% 45 km
Mo, 26.02. 0:30 91% 45 km
Mo, 26.02. 0:00 92% 35 km
So, 25.02. 23:30 92% 40 km
So, 25.02. 23:00 92% 40 km
Ortszeit Niederschlagsmenge Niederschlagsart
Mo, 26.02. 1:00 0.0 l/m2 in 6 Std. -
So, 25.02. 19:00 1 l/m2 in 12 Std. Regen
So, 25.02. 13:00 0.1 l/m2 in 6 Std. Regen
So, 25.02. 7:00 0.1 l/m2 in 12 Std. Regen
So, 25.02. 1:00 0.0 l/m2 in 6 Std. -
Sa, 24.02. 19:00 0.2 l/m2 in 12 Std. Regen
Sa, 24.02. 13:00 0.2 l/m2 in 6 Std. Regen
Sa, 24.02. 7:00 0.0 l/m2 in 12 Std. -
Ortszeit Niederschlagsmenge Niederschlagsart
Mo, 26.02. 2:00 0.0 l/m2 in 1 Std. -
Mo, 26.02. 1:50 keine Meldung -
Mo, 26.02. 1:40 keine Meldung -
Mo, 26.02. 1:30 0.0 l/m2 in 30 Min -
Mo, 26.02. 1:20 keine Meldung -
Mo, 26.02. 1:10 keine Meldung -
Mo, 26.02. 1:00 0.0 l/m2 in 1 Std. -
Mo, 26.02. 0:30 0.0 l/m2 in 30 Min -
Mo, 26.02. 0:00 0.0 l/m2 in 1 Std. -
So, 25.02. 23:30 0.0 l/m2 in 30 Min -
So, 25.02. 23:00 0.0 l/m2 in 1 Std. -
Ortszeit Stärke Spitze Richtung
km/h Bft. km/h Grad Sektor
Mo, 26.02. 1:00 7 2 11 10° N
So, 25.02. 19:00 7 2 40 160° S
So, 25.02. 13:00 14 3 36 200° S
So, 25.02. 7:00 13 3 19 220° SW
So, 25.02. 1:00 6 1 30 150° SO
Sa, 24.02. 19:00 4 1 43 170° S
Sa, 24.02. 13:00 19 3 37 210° SW
Sa, 24.02. 7:00 4 1 18 160° S
Ortszeit Stärke Spitze Richtung
km/h Bft. km/h Grad Sektor
Mo, 26.02. 2:00 11 2 14 20° N
Mo, 26.02. 1:50 11 2 - 20° N
Mo, 26.02. 1:40 11 2 - 30° NO
Mo, 26.02. 1:30 11 2 11 20° N
Mo, 26.02. 1:20 11 2 - 20° N
Mo, 26.02. 1:10 11 2 - 20° N
Mo, 26.02. 1:00 7 2 11 10° N
Mo, 26.02. 0:30 7 2 7 360° N
Mo, 26.02. 0:00 7 2 11 20° N
So, 25.02. 23:30 7 2 11 20° N
So, 25.02. 23:00 7 2 11 30° NO
Ortszeit Untergrenze Bedeckung Gattung
total tief tief mittel hoch
Mo, 26.02. 1:00 7200 m 8/8 0/8 - - -
So, 25.02. 19:00 9000 m 8/8 0/8 - - -
So, 25.02. 13:00 600 m 8/8 8/8 - - -
So, 25.02. 7:00 870 m 8/8 8/8 - - -
So, 25.02. 1:00 4500 m 8/8 8/8 - - -
Sa, 24.02. 19:00 - 0/8 0/8 - - -
Sa, 24.02. 13:00 570 m 7/8 6/8 - - -
Sa, 24.02. 7:00 720 m 8/8 8/8 - - -
Ortszeit Bedeckungsgrad in Achtel und Wolkenuntergrenze
Mo, 26.02. 2:00 4(1800m) 8(4200m) 8(5700m)
Mo, 26.02. 1:50 4(1800m) 8(4200m) 8(5700m)
Mo, 26.02. 1:40 8
Mo, 26.02. 1:30 3(1800m) 8(8100m) 8(9000m)
Mo, 26.02. 1:20 3(1800m) 8(8100m) 8(9000m)
Mo, 26.02. 1:10 8
Mo, 26.02. 1:00 2(7200m) 8(8400m) 8(9000m)
Mo, 26.02. 0:30 2(6600m) 8(9000m) 8(9000m)
Mo, 26.02. 0:00 6(7200m) 8(7800m) 8(9000m)
So, 25.02. 23:30 3(8400m) 7(9000m)
So, 25.02. 23:00 6(8400m) 8(9000m)
Ortszeit Luftdruck NN (hPa) Tendenz (hPa in 3 Std.)
Mo, 26.02. 1:00 1002 - 0,5
So, 25.02. 19:00 1003 - 0,6
So, 25.02. 13:00 1004 - 0,4
So, 25.02. 7:00 1004 - 0,3
So, 25.02. 1:00 1006 + 0,2
Sa, 24.02. 19:00 1005 + 1,8
Sa, 24.02. 13:00 1001 + 1,2
Sa, 24.02. 7:00 999 + 1,0
Ortszeit Luftdruck NN (hPa) Tendenz (hPa in 3 Std.)
Mo, 26.02. 2:00 1002 - 0,7
Mo, 26.02. 1:50 1002 keine Meldung
Mo, 26.02. 1:40 1002 keine Meldung
Mo, 26.02. 1:30 1002 - 0,8
Mo, 26.02. 1:20 1002 keine Meldung
Mo, 26.02. 1:10 1002 keine Meldung
Mo, 26.02. 1:00 1002 - 0,5
Mo, 26.02. 0:30 1003 - 0,5
Mo, 26.02. 0:00 1003 - 0,6
So, 25.02. 23:30 1003 - 0,6
So, 25.02. 23:00 1003 - 0,5
Ortszeit Schneehöhe (cm)
Mo, 26.02. 1:00 0
So, 25.02. 19:00 0
So, 25.02. 13:00 0
So, 25.02. 7:00 0
So, 25.02. 1:00 0
Sa, 24.02. 19:00 0
Sa, 24.02. 13:00 0
Sa, 24.02. 7:00 0
Ortszeit Schneehöhe (cm)
Mo, 26.02. 2:00 0
Mo, 26.02. 1:50 0
Mo, 26.02. 1:40 -
Mo, 26.02. 1:30 0
Mo, 26.02. 1:20 0
Mo, 26.02. 1:10 -
Mo, 26.02. 1:00 0
Mo, 26.02. 0:30 0
Mo, 26.02. 0:00 0
So, 25.02. 23:30 0
So, 25.02. 23:00 0
Link zu dieser Seite / Seite empfehlen

Das Wetter in ...